,,PressureMeas_1m,,PRMeasQMR101_1,,RHStat155_1m_1,,SRMeasQMS101R_1m,,TAStat155_1m_1,,GenWind_1,,GenWind_1,
2017-07-23, 07:00:06,VALID,918.619,VALID,0.0,VALID,93.169,VALID,87.366,VALID,18.174,VALID,140.0,VALID,1.155,
2017-07-23, 07:01:06,VALID,918.645,VALID,0.0,VALID,93.369,VALID,90.754,VALID,18.143,VALID,141.0,VALID,1.234,
2017-07-23, 07:02:06,VALID,918.649,VALID,0.0,VALID,93.437,VALID,94.03,VALID,18.165,VALID,141.0,VALID,1.301,
2017-07-23, 07:03:06,VALID,918.666,VALID,0.0,VALID,93.259,VALID,97.25,VALID,18.228,VALID,139.0,VALID,1.261,
2017-07-23, 07:04:06,VALID,918.652,VALID,0.0,VALID,93.072,VALID,100.475,VALID,18.293,VALID,136.0,VALID,0.963,
2017-07-23, 07:05:06,VALID,918.666,VALID,0.0,VALID,92.978,VALID,103.638,VALID,18.356,VALID,124.0,VALID,0.87,
2017-07-23, 07:06:06,VALID,918.68,VALID,0.0,VALID,93.148,VALID,106.802,VALID,18.427,VALID,119.0,VALID,0.825,
2017-07-23, 07:07:06,VALID,918.676,VALID,0.0,VALID,92.991,VALID,109.905,VALID,18.485,VALID,115.0,VALID,1.176,
2017-07-23, 07:08:07,VALID,918.68,VALID,0.0,VALID,92.786,VALID,112.939,VALID,18.558,VALID,120.0,VALID,1.428,
2017-07-23, 07:09:07,VALID,918.672,VALID,0.0,VALID,92.813,VALID,116.1,VALID,18.681,VALID,122.0,VALID,1.714,
2017-07-23, 07:10:07,VALID,918.677,VALID,0.0,VALID,92.566,VALID,119.209,VALID,18.826,VALID,128.0,VALID,1.727,
2017-07-23, 07:11:07,VALID,918.674,VALID,0.0,VALID,92.139,VALID,122.492,VALID,18.935,VALID,130.0,VALID,1.506,
2017-07-23, 07:12:07,VALID,918.67,VALID,0.0,VALID,91.54,VALID,125.979,VALID,19.013,VALID,132.0,VALID,1.614,
2017-07-23, 07:13:07,VALID,918.679,VALID,0.0,VALID,91.277,VALID,129.492,VALID,19.086,VALID,135.0,VALID,1.335,
2017-07-23, 07:14:07,VALID,918.686,VALID,0.0,VALID,90.573,VALID,133.081,VALID,19.11,VALID,146.0,VALID,1.631,
2017-07-23, 07:15:07,VALID,918.706,VALID,0.0,VALID,89.996,VALID,136.536,VALID,19.111,VALID,149.0,VALID,1.802,
2017-07-23, 07:16:07,VALID,918.713,VALID,0.0,VALID,89.985,VALID,139.67,VALID,19.097,VALID,145.0,VALID,1.713,
2017-07-23, 07:17:07,VALID,918.723,VALID,0.0,VALID,89.905,VALID,142.813,VALID,19.078,VALID,146.0,VALID,1.972,
2017-07-23, 07:18:07,VALID,918.738,VALID,0.0,VALID,89.924,VALID,146.147,VALID,19.05,VALID,147.0,VALID,1.857,
2017-07-23, 07:19:07,VALID,918.754,VALID,0.0,VALID,89.816,VALID,149.634,VALID,19.01,VALID,145.0,VALID,2.189,
2017-07-23, 07:20:07,VALID,918.756,VALID,0.0,VALID,89.948,VALID,152.708,VALID,18.934,VALID,143.0,VALID,2.082,
2017-07-23, 07:21:07,VALID,918.763,VALID,0.0,VALID,90.367,VALID,156.144,VALID,18.872,VALID,140.0,VALID,1.656,
2017-07-23, 07:22:07,VALID,918.777,VALID,0.0,VALID,90.708,VALID,159.792,VALID,18.832,VALID,138.0,VALID,1.832,
2017-07-23, 07:23:07,VALID,918.779,VALID,0.0,VALID,91.42,VALID,163.475,VALID,18.839,VALID,133.0,VALID,1.502,
2017-07-23, 07:24:07,VALID,918.793,VALID,0.0,VALID,92.112,VALID,166.967,VALID,18.926,VALID,128.0,VALID,1.251,
2017-07-23, 07:25:07,VALID,918.795,VALID,0.0,VALID,92.073,VALID,170.688,VALID,19.039,VALID,129.0,VALID,1.461,
2017-07-23, 07:26:07,VALID,918.81,VALID,0.0,VALID,92.051,VALID,174.273,VALID,19.152,VALID,133.0,VALID,1.242,
2017-07-23, 07:27:07,VALID,918.808,VALID,0.0,VALID,91.853,VALID,177.816,VALID,19.259,VALID,128.0,VALID,0.955,
2017-07-23, 07:28:07,VALID,918.827,VALID,0.0,VALID,91.624,VALID,181.497,VALID,19.355,VALID,134.0,VALID,1.266,
2017-07-23, 07:29:07,VALID,918.838,VALID,0.0,VALID,91.196,VALID,185.284,VALID,19.424,VALID,140.0,VALID,1.257,
2017-07-23, 07:30:07,VALID,918.856,VALID,0.0,VALID,90.994,VALID,189.178,VALID,19.457,VALID,136.0,VALID,1.269,
2017-07-23, 07:31:07,VALID,918.856,VALID,0.0,VALID,90.769,VALID,192.884,VALID,19.48,VALID,137.0,VALID,1.268,
2017-07-23, 07:32:07,VALID,918.866,VALID,0.0,VALID,91.11,VALID,196.303,VALID,19.509,VALID,133.0,VALID,1.002,
2017-07-23, 07:33:07,VALID,918.872,VALID,0.0,VALID,91.409,VALID,199.892,VALID,19.575,VALID,125.0,VALID,1.337,
2017-07-23, 07:34:07,VALID,918.873,VALID,0.0,VALID,91.741,VALID,203.82,VALID,19.684,VALID,119.0,VALID,1.209,
2017-07-23, 07:35:07,VALID,918.868,VALID,0.0,VALID,91.432,VALID,207.764,VALID,19.796,VALID,121.0,VALID,1.795,
2017-07-23, 07:36:07,VALID,918.885,VALID,0.0,VALID,90.346,VALID,211.157,VALID,19.82,VALID,122.0,VALID,1.875,
2017-07-23, 07:37:07,VALID,918.904,VALID,0.0,VALID,90.698,VALID,214.729,VALID,19.859,VALID,113.0,VALID,1.78,
2017-07-23, 07:38:07,VALID,918.925,VALID,0.0,VALID,91.292,VALID,218.312,VALID,19.93,VALID,129.0,VALID,1.176,
2017-07-23, 07:39:07,VALID,918.955,VALID,0.0,VALID,90.052,VALID,222.386,VALID,19.979,VALID,144.0,VALID,1.268,
2017-07-23, 07:40:07,VALID,918.978,VALID,0.0,VALID,88.796,VALID,226.595,VALID,19.944,VALID,148.0,VALID,1.175,
2017-07-23, 07:41:07,VALID,919.001,VALID,0.0,VALID,89.44,VALID,230.775,VALID,19.938,VALID,137.0,VALID,1.045,
2017-07-23, 07:42:07,VALID,919.011,VALID,0.0,VALID,89.621,VALID,234.601,VALID,20.01,VALID,144.0,VALID,0.627,
2017-07-23, 07:43:07,VALID,919.003,VALID,0.0,VALID,89.367,VALID,238.4,VALID,20.075,VALID,136.0,VALID,0.751,
2017-07-23, 07:44:07,VALID,919.002,VALID,0.0,VALID,89.127,VALID,241.373,VALID,20.124,VALID,123.0,VALID,0.645,
2017-07-23, 07:45:07,VALID,918.982,VALID,0.0,VALID,89.937,VALID,244.814,VALID,20.227,VALID,95.0,VALID,0.925,
2017-07-23, 07:46:07,VALID,918.991,VALID,0.0,VALID,89.896,VALID,248.414,VALID,20.303,VALID,110.0,VALID,1.064,
2017-07-23, 07:47:07,VALID,919.003,VALID,0.0,VALID,89.2,VALID,252.633,VALID,20.38,VALID,126.0,VALID,1.112,
2017-07-23, 07:48:07,VALID,919.031,VALID,0.0,VALID,88.622,VALID,256.902,VALID,20.476,VALID,122.0,VALID,1.256,
2017-07-23, 07:49:07,VALID,919.055,VALID,0.0,VALID,88.287,VALID,261.151,VALID,20.486,VALID,141.0,VALID,0.877,
2017-07-23, 07:50:07,VALID,919.075,VALID,0.0,VALID,89.064,VALID,265.017,VALID,20.525,VALID,139.0,VALID,1.156,
2017-07-23, 07:51:07,VALID,919.082,VALID,0.0,VALID,88.325,VALID,268.593,VALID,20.569,VALID,143.0,VALID,1.357,
2017-07-23, 07:52:07,VALID,919.085,VALID,0.0,VALID,87.984,VALID,271.89,VALID,20.566,VALID,135.0,VALID,1.688,
2017-07-23, 07:53:07,VALID,919.098,VALID,0.0,VALID,88.475,VALID,274.88,VALID,20.609,VALID,135.0,VALID,1.62,
2017-07-23, 07:54:07,VALID,919.119,VALID,0.0,VALID,87.826,VALID,278.51,VALID,20.645,VALID,125.0,VALID,1.641,
2017-07-23, 07:55:07,VALID,919.145,VALID,0.0,VALID,87.607,VALID,282.408,VALID,20.694,VALID,128.0,VALID,1.52,
2017-07-23, 07:56:07,VALID,919.166,VALID,0.0,VALID,87.805,VALID,286.383,VALID,20.758,VALID,135.0,VALID,1.015,
2017-07-23, 07:57:07,VALID,919.181,VALID,0.0,VALID,88.466,VALID,290.477,VALID,20.852,VALID,125.0,VALID,0.742,
2017-07-23, 07:58:07,VALID,919.185,VALID,0.0,VALID,87.855,VALID,294.489,VALID,20.936,VALID,118.0,VALID,1.195,
2017-07-23, 07:59:07,VALID,919.175,VALID,0.0,VALID,87.75,VALID,298.62,VALID,21.044,VALID,94.0,VALID,0.618,
2017-07-23, 08:00:07,VALID,919.156,VALID,0.0,VALID,88.519,VALID,302.393,VALID,21.197,VALID,103.0,VALID,1.047,
2017-07-23, 08:01:07,VALID,919.146,VALID,0.0,VALID,86.798,VALID,306.422,VALID,21.293,VALID,90.0,VALID,1.008,
2017-07-23, 08:02:07,VALID,919.132,VALID,0.0,VALID,87.013,VALID,310.345,VALID,21.371,VALID,67.0,VALID,0.992,
2017-07-23, 08:03:07,VALID,919.131,VALID,0.0,VALID,86.29,VALID,314.318,VALID,21.434,VALID,90.0,VALID,0.558,
2017-07-23, 08:04:07,VALID,919.134,VALID,0.0,VALID,85.92,VALID,317.918,VALID,21.513,VALID,50.0,VALID,0.956,
2017-07-23, 08:05:07,VALID,919.152,VALID,0.0,VALID,84.154,VALID,321.758,VALID,21.539,VALID,62.0,VALID,0.876,
2017-07-23, 08:06:07,VALID,919.153,VALID,0.0,VALID,83.995,VALID,326.046,VALID,21.552,VALID,65.0,VALID,0.086,
2017-07-23, 08:07:07,VALID,919.15,VALID,0.0,VALID,84.021,VALID,329.842,VALID,21.662,VALID,76.0,VALID,0.192,
2017-07-23, 08:08:07,VALID,919.147,VALID,0.0,VALID,83.83,VALID,333.932,VALID,21.767,VALID,88.0,VALID,0.239,
2017-07-23, 08:09:07,VALID,919.126,VALID,0.0,VALID,82.696,VALID,338.133,VALID,21.843,VALID,116.0,VALID,0.292,
2017-07-23, 08:10:07,VALID,919.105,VALID,0.0,VALID,82.569,VALID,342.298,VALID,21.914,VALID,110.0,VALID,0.22,
2017-07-23, 08:11:07,VALID,919.075,VALID,0.0,VALID,83.355,VALID,346.181,VALID,22.03,VALID,67.0,VALID,0.506,
2017-07-23, 08:12:07,VALID,919.079,VALID,0.0,VALID,82.855,VALID,349.828,VALID,22.151,VALID,59.0,VALID,0.409,
2017-07-23, 08:13:07,VALID,919.075,VALID,0.0,VALID,83.004,VALID,353.481,VALID,22.282,VALID,17.0,VALID,0.724,
2017-07-23, 08:14:07,VALID,919.079,VALID,0.0,VALID,83.276,VALID,357.256,VALID,22.441,VALID,3.0,VALID,0.457,
2017-07-23, 08:15:07,VALID,919.086,VALID,0.0,VALID,82.048,VALID,361.515,VALID,22.611,VALID,21.0,VALID,0.393,
2017-07-23, 08:16:07,VALID,919.091,VALID,0.0,VALID,80.398,VALID,366.023,VALID,22.781,VALID,353.0,VALID,0.079,
2017-07-23, 08:17:07,VALID,919.115,VALID,0.0,VALID,79.296,VALID,370.028,VALID,22.716,VALID,255.0,VALID,0.229,
2017-07-23, 08:18:07,VALID,919.126,VALID,0.0,VALID,80.03,VALID,373.528,VALID,22.404,VALID,256.0,VALID,0.11,
2017-07-23, 08:19:07,VALID,919.149,VALID,0.0,VALID,81.643,VALID,377.055,VALID,22.197,VALID,251.0,VALID,0.064,
2017-07-23, 08:20:07,VALID,919.155,VALID,0.0,VALID,82.742,VALID,380.335,VALID,22.259,VALID,20.0,VALID,0.166,
2017-07-23, 08:21:07,VALID,919.166,VALID,0.0,VALID,81.671,VALID,383.833,VALID,22.502,VALID,12.0,VALID,0.0,
2017-07-23, 08:22:07,VALID,919.177,VALID,0.0,VALID,80.96,VALID,387.897,VALID,22.913,VALID,3.0,VALID,0.106,
2017-07-23, 08:23:07,VALID,919.2,VALID,0.0,VALID,78.55,VALID,391.712,VALID,23.022,VALID,315.0,VALID,0.07,
2017-07-23, 08:24:07,VALID,919.208,VALID,0.0,VALID,79.393,VALID,395.359,VALID,22.931,VALID,357.0,VALID,0.043,
2017-07-23, 08:25:07,VALID,919.211,VALID,0.0,VALID,79.286,VALID,398.749,VALID,23.046,VALID,52.0,VALID,0.398,
2017-07-23, 08:26:07,VALID,919.213,VALID,0.0,VALID,78.697,VALID,401.586,VALID,23.098,VALID,63.0,VALID,0.354,
2017-07-23, 08:27:07,VALID,919.213,VALID,0.0,VALID,78.272,VALID,404.812,VALID,23.103,VALID,72.0,VALID,0.275,
2017-07-23, 08:28:07,VALID,919.208,VALID,0.0,VALID,78.639,VALID,408.09,VALID,23.074,VALID,45.0,VALID,0.403,
2017-07-23, 08:29:07,VALID,919.202,VALID,0.0,VALID,78.967,VALID,411.856,VALID,23.202,VALID,30.0,VALID,0.02,
2017-07-23, 08:30:07,VALID,919.199,VALID,0.0,VALID,78.766,VALID,415.499,VALID,23.471,VALID,54.0,VALID,0.509,
2017-07-23, 08:31:07,VALID,919.2,VALID,0.0,VALID,78.175,VALID,419.598,VALID,23.575,VALID,36.0,VALID,0.84,
2017-07-23, 08:32:07,VALID,919.199,VALID,0.0,VALID,77.938,VALID,423.274,VALID,23.577,VALID,57.0,VALID,0.387,
2017-07-23, 08:33:07,VALID,919.21,VALID,0.0,VALID,76.867,VALID,426.974,VALID,23.488,VALID,51.0,VALID,0.034,
2017-07-23, 08:34:07,VALID,919.224,VALID,0.0,VALID,75.525,VALID,430.426,VALID,23.625,VALID,51.0,VALID,0.0,
2017-07-23, 08:35:07,VALID,919.233,VALID,0.0,VALID,75.361,VALID,433.843,VALID,23.802,VALID,73.0,VALID,0.081,
2017-07-23, 08:36:07,VALID,919.229,VALID,0.0,VALID,76.536,VALID,436.282,VALID,23.778,VALID,150.0,VALID,0.875,
2017-07-23, 08:37:07,VALID,919.224,VALID,0.0,VALID,76.668,VALID,439.441,VALID,23.297,VALID,150.0,VALID,1.063,
2017-07-23, 08:38:07,VALID,919.214,VALID,0.0,VALID,78.657,VALID,442.983,VALID,22.881,VALID,158.0,VALID,1.111,
2017-07-23, 08:39:07,VALID,919.216,VALID,0.0,VALID,80.344,VALID,447.271,VALID,22.695,VALID,142.0,VALID,0.714,
2017-07-23, 08:40:07,VALID,919.212,VALID,0.0,VALID,80.52,VALID,451.946,VALID,22.713,VALID,150.0,VALID,0.948,
2017-07-23, 08:41:07,VALID,919.226,VALID,0.0,VALID,79.789,VALID,455.631,VALID,22.646,VALID,146.0,VALID,0.586,
2017-07-23, 08:42:07,VALID,919.249,VALID,0.0,VALID,80.135,VALID,458.895,VALID,22.643,VALID,161.0,VALID,0.278,
2017-07-23, 08:43:07,VALID,919.251,VALID,0.0,VALID,79.808,VALID,462.552,VALID,22.856,VALID,170.0,VALID,0.0,
2017-07-23, 08:44:07,VALID,919.248,VALID,0.0,VALID,78.852,VALID,465.41,VALID,23.301,VALID,149.0,VALID,0.0,
2017-07-23, 08:45:07,VALID,919.258,VALID,0.0,VALID,77.614,VALID,469.362,VALID,23.807,VALID,105.0,VALID,0.186,
2017-07-23, 08:46:07,VALID,919.258,VALID,0.0,VALID,74.999,VALID,472.388,VALID,24.132,VALID,103.0,VALID,0.013,
2017-07-23, 08:47:07,VALID,919.248,VALID,0.0,VALID,73.539,VALID,475.66,VALID,24.445,VALID,88.0,VALID,0.05,
2017-07-23, 08:48:07,VALID,919.234,VALID,0.0,VALID,71.176,VALID,479.872,VALID,24.706,VALID,76.0,VALID,0.013,
2017-07-23, 08:49:07,VALID,919.24,VALID,0.0,VALID,70.624,VALID,483.22,VALID,24.871,VALID,75.0,VALID,0.039,
2017-07-23, 08:50:07,VALID,919.249,VALID,0.0,VALID,72.01,VALID,486.417,VALID,24.863,VALID,66.0,VALID,0.448,
2017-07-23, 08:51:07,VALID,919.256,VALID,0.0,VALID,72.73,VALID,489.534,VALID,24.661,VALID,96.0,VALID,0.476,
2017-07-23, 08:52:07,VALID,919.26,VALID,0.0,VALID,74.135,VALID,492.35,VALID,24.444,VALID,37.0,VALID,0.738,
2017-07-23, 08:53:07,VALID,919.27,VALID,0.0,VALID,71.939,VALID,495.863,VALID,24.476,VALID,320.0,VALID,0.629,
2017-07-23, 08:54:07,VALID,919.257,VALID,0.0,VALID,71.21,VALID,500.236,VALID,24.41,VALID,58.0,VALID,0.439,
2017-07-23, 08:55:07,VALID,919.248,VALID,0.0,VALID,73.72,VALID,504.295,VALID,24.488,VALID,60.0,VALID,0.851,
2017-07-23, 08:56:07,VALID,919.232,VALID,0.0,VALID,72.162,VALID,508.665,VALID,24.369,VALID,30.0,VALID,1.204,
2017-07-23, 08:57:07,VALID,919.233,VALID,0.0,VALID,71.027,VALID,512.552,VALID,24.123,VALID,23.0,VALID,1.141,
2017-07-23, 08:58:07,VALID,919.237,VALID,0.0,VALID,71.402,VALID,516.335,VALID,23.981,VALID,47.0,VALID,0.821,
2017-07-23, 08:59:07,VALID,919.26,VALID,0.0,VALID,70.438,VALID,519.597,VALID,23.97,VALID,3.0,VALID,1.192,
2017-07-23, 09:00:07,VALID,919.284,VALID,0.0,VALID,67.863,VALID,522.493,VALID,23.984,VALID,5.0,VALID,0.483,
2017-07-23, 09:01:07,VALID,919.294,VALID,0.0,VALID,68.127,VALID,524.33,VALID,24.194,VALID,6.0,VALID,0.579,
2017-07-23, 09:02:07,VALID,919.317,VALID,0.0,VALID,69.68,VALID,526.57,VALID,24.483,VALID,314.0,VALID,0.355,
2017-07-23, 09:03:07,VALID,919.321,VALID,0.0,VALID,71.635,VALID,529.791,VALID,24.501,VALID,346.0,VALID,0.218,
2017-07-23, 09:04:07,VALID,919.31,VALID,0.0,VALID,71.172,VALID,535.924,VALID,24.611,VALID,33.0,VALID,1.089,
2017-07-23, 09:05:07,VALID,919.305,VALID,0.0,VALID,68.548,VALID,539.365,VALID,24.547,VALID,27.0,VALID,1.062,
2017-07-23, 09:06:07,VALID,919.315,VALID,0.0,VALID,69.019,VALID,541.903,VALID,24.586,VALID,24.0,VALID,0.808,
2017-07-23, 09:07:07,VALID,919.322,VALID,0.0,VALID,67.588,VALID,545.501,VALID,24.797,VALID,14.0,VALID,1.418,
2017-07-23, 09:08:07,VALID,919.319,VALID,0.0,VALID,67.183,VALID,548.437,VALID,24.744,VALID,6.0,VALID,1.193,
2017-07-23, 09:09:07,VALID,919.301,VALID,0.0,VALID,66.799,VALID,551.879,VALID,24.615,VALID,3.0,VALID,0.68,
2017-07-23, 09:10:07,VALID,919.31,VALID,0.0,VALID,68.24,VALID,555.513,VALID,24.6,VALID,314.0,VALID,0.656,
2017-07-23, 09:11:07,VALID,919.305,VALID,0.0,VALID,67.661,VALID,559.964,VALID,24.614,VALID,12.0,VALID,0.916,
2017-07-23, 09:12:07,VALID,919.309,VALID,0.0,VALID,68.038,VALID,563.038,VALID,24.548,VALID,23.0,VALID,1.075,
2017-07-23, 09:13:07,VALID,919.318,VALID,0.0,VALID,69.042,VALID,565.695,VALID,24.576,VALID,5.0,VALID,1.186,
2017-07-23, 09:14:07,VALID,919.304,VALID,0.0,VALID,67.873,VALID,568.181,VALID,24.552,VALID,37.0,VALID,1.997,
2017-07-23, 09:15:07,VALID,919.307,VALID,0.0,VALID,69.59,VALID,571.381,VALID,24.551,VALID,3.0,VALID,1.271,
2017-07-23, 09:16:07,VALID,919.292,VALID,0.0,VALID,68.394,VALID,574.481,VALID,24.672,VALID,4.0,VALID,0.875,
2017-07-23, 09:17:07,VALID,919.277,VALID,0.0,VALID,67.475,VALID,577.868,VALID,24.755,VALID,348.0,VALID,0.73,
2017-07-23, 09:18:07,VALID,919.264,VALID,0.0,VALID,67.131,VALID,581.29,VALID,24.746,VALID,334.0,VALID,0.221,
2017-07-23, 09:19:06,VALID,919.253,VALID,0.0,VALID,67.248,VALID,585.156,VALID,24.816,VALID,293.0,VALID,0.053,
2017-07-23, 09:20:06,VALID,919.273,VALID,0.0,VALID,66.702,VALID,589.4,VALID,24.876,VALID,251.0,VALID,0.214,
2017-07-23, 09:21:06,VALID,919.291,VALID,0.0,VALID,67.434,VALID,592.67,VALID,24.845,VALID,270.0,VALID,0.45,
2017-07-23, 09:22:06,VALID,919.31,VALID,0.0,VALID,66.742,VALID,595.674,VALID,24.735,VALID,254.0,VALID,0.562,
2017-07-23, 09:23:06,VALID,919.327,VALID,0.0,VALID,68.021,VALID,596.096,VALID,24.615,VALID,250.0,VALID,0.842,
2017-07-23, 09:24:06,VALID,919.359,VALID,0.0,VALID,69.709,VALID,598.038,VALID,24.519,VALID,258.0,VALID,0.236,
2017-07-23, 09:25:06,VALID,919.36,VALID,0.0,VALID,70.68,VALID,601.635,VALID,24.66,VALID,315.0,VALID,0.112,
2017-07-23, 09:26:06,VALID,919.369,VALID,0.0,VALID,69.127,VALID,605.052,VALID,24.991,VALID,323.0,VALID,0.251,
2017-07-23, 09:27:06,VALID,919.389,VALID,0.0,VALID,67.123,VALID,608.074,VALID,25.129,VALID,306.0,VALID,0.993,
2017-07-23, 09:28:06,VALID,919.399,VALID,0.0,VALID,66.438,VALID,611.62,VALID,24.831,VALID,282.0,VALID,0.762,
2017-07-23, 09:29:06,VALID,919.395,VALID,0.0,VALID,67.889,VALID,615.188,VALID,24.596,VALID,239.0,VALID,0.793,
2017-07-23, 09:30:06,VALID,919.382,VALID,0.0,VALID,67.701,VALID,618.427,VALID,24.547,VALID,228.0,VALID,0.574,
2017-07-23, 09:31:06,VALID,919.377,VALID,0.0,VALID,68.273,VALID,620.423,VALID,24.591,VALID,268.0,VALID,0.417,
2017-07-23, 09:32:06,VALID,919.361,VALID,0.0,VALID,69.779,VALID,623.724,VALID,24.792,VALID,6.0,VALID,0.496,
2017-07-23, 09:33:06,VALID,919.339,VALID,0.0,VALID,66.876,VALID,626.181,VALID,25.2,VALID,4.0,VALID,0.364,
2017-07-23, 09:34:06,VALID,919.334,VALID,0.0,VALID,66.396,VALID,630.206,VALID,25.433,VALID,355.0,VALID,1.059,
2017-07-23, 09:35:06,VALID,919.332,VALID,0.0,VALID,64.407,VALID,634.482,VALID,25.392,VALID,290.0,VALID,0.932,
2017-07-23, 09:36:06,VALID,919.329,VALID,0.0,VALID,65.258,VALID,639.235,VALID,25.1,VALID,314.0,VALID,0.303,
2017-07-23, 09:37:06,VALID,919.321,VALID,0.0,VALID,65.977,VALID,640.678,VALID,25.182,VALID,20.0,VALID,0.363,
2017-07-23, 09:38:06,VALID,919.31,VALID,0.0,VALID,65.548,VALID,643.018,VALID,25.487,VALID,354.0,VALID,0.238,
2017-07-23, 09:39:06,VALID,919.292,VALID,0.0,VALID,64.759,VALID,644.995,VALID,25.586,VALID,291.0,VALID,0.849,
2017-07-23, 09:40:06,VALID,919.277,VALID,0.0,VALID,64.216,VALID,648.118,VALID,25.317,VALID,287.0,VALID,0.777,
2017-07-23, 09:41:06,VALID,919.234,VALID,0.0,VALID,63.731,VALID,651.748,VALID,25.05,VALID,307.0,VALID,0.405,
2017-07-23, 09:42:06,VALID,919.218,VALID,0.0,VALID,64.9,VALID,654.194,VALID,25.026,VALID,37.0,VALID,0.398,
2017-07-23, 09:43:06,VALID,919.203,VALID,0.0,VALID,65.762,VALID,656.249,VALID,25.235,VALID,341.0,VALID,1.034,
2017-07-23, 09:44:06,VALID,919.206,VALID,0.0,VALID,64.523,VALID,659.844,VALID,25.236,VALID,330.0,VALID,0.568,
2017-07-23, 09:45:06,VALID,919.197,VALID,0.0,VALID,65.764,VALID,662.576,VALID,25.269,VALID,349.0,VALID,0.354,
2017-07-23, 09:46:06,VALID,919.196,VALID,0.0,VALID,65.708,VALID,665.798,VALID,25.532,VALID,314.0,VALID,0.282,
2017-07-23, 09:47:06,VALID,919.178,VALID,0.0,VALID,63.971,VALID,667.025,VALID,25.849,VALID,346.0,VALID,0.243,
2017-07-23, 09:48:06,VALID,919.154,VALID,0.0,VALID,62.295,VALID,670.052,VALID,25.94,VALID,270.0,VALID,0.675,
2017-07-23, 09:49:06,VALID,919.121,VALID,0.0,VALID,61.722,VALID,672.921,VALID,25.798,VALID,247.0,VALID,0.071,
2017-07-23, 09:50:06,VALID,919.089,VALID,0.0,VALID,64.512,VALID,676.027,VALID,25.889,VALID,359.0,VALID,0.946,
2017-07-23, 09:51:06,VALID,919.078,VALID,0.0,VALID,63.542,VALID,678.883,VALID,26.118,VALID,15.0,VALID,1.068,
2017-07-23, 09:52:06,VALID,919.064,VALID,0.0,VALID,63.425,VALID,681.205,VALID,26.232,VALID,5.0,VALID,0.918,
2017-07-23, 09:53:06,VALID,919.051,VALID,0.0,VALID,63.102,VALID,683.763,VALID,26.302,VALID,21.0,VALID,1.069,
2017-07-23, 09:54:06,VALID,919.055,VALID,0.0,VALID,63.176,VALID,686.257,VALID,26.399,VALID,47.0,VALID,0.545,
2017-07-23, 09:55:06,VALID,919.072,VALID,0.0,VALID,63.157,VALID,690.315,VALID,26.505,VALID,319.0,VALID,0.436,
2017-07-23, 09:56:06,VALID,919.095,VALID,0.0,VALID,62.039,VALID,693.257,VALID,26.256,VALID,282.0,VALID,1.061,
2017-07-23, 09:57:06,VALID,919.112,VALID,0.0,VALID,63.021,VALID,695.551,VALID,25.857,VALID,282.0,VALID,1.032,
2017-07-23, 09:58:06,VALID,919.134,VALID,0.0,VALID,64.489,VALID,698.673,VALID,25.461,VALID,265.0,VALID,0.68,
2017-07-23, 09:59:06,VALID,919.139,VALID,0.0,VALID,66.278,VALID,700.372,VALID,25.374,VALID,344.0,VALID,0.718,
2017-07-23, 10:00:06,VALID,919.152,VALID,0.0,VALID,63.606,VALID,703.995,VALID,25.582,VALID,311.0,VALID,0.609,
2017-07-23, 10:01:06,VALID,919.155,VALID,0.0,VALID,61.627,VALID,705.383,VALID,25.718,VALID,305.0,VALID,0.512,
2017-07-23, 10:02:06,VALID,919.155,VALID,0.0,VALID,61.954,VALID,707.315,VALID,25.873,VALID,323.0,VALID,0.436,
2017-07-23, 10:03:06,VALID,919.154,VALID,0.0,VALID,61.539,VALID,710.883,VALID,25.958,VALID,3.0,VALID,0.334,
2017-07-23, 10:04:06,VALID,919.138,VALID,0.0,VALID,61.535,VALID,712.76,VALID,26.213,VALID,344.0,VALID,0.645,
2017-07-23, 10:05:06,VALID,919.115,VALID,0.0,VALID,60.655,VALID,714.219,VALID,26.362,VALID,322.0,VALID,0.654,
2017-07-23, 10:06:06,VALID,919.107,VALID,0.0,VALID,60.507,VALID,716.974,VALID,26.4,VALID,337.0,VALID,0.63,
2017-07-23, 10:07:06,VALID,919.102,VALID,0.0,VALID,60.718,VALID,719.153,VALID,26.321,VALID,355.0,VALID,0.976,
2017-07-23, 10:08:06,VALID,919.116,VALID,0.0,VALID,62.953,VALID,722.371,VALID,26.331,VALID,332.0,VALID,0.609,
2017-07-23, 10:09:06,VALID,919.117,VALID,0.0,VALID,60.221,VALID,724.543,VALID,26.305,VALID,9.0,VALID,1.274,
2017-07-23, 10:10:06,VALID,919.13,VALID,0.0,VALID,60.312,VALID,725.747,VALID,26.294,VALID,26.0,VALID,0.938,
2017-07-23, 10:11:06,VALID,919.14,VALID,0.0,VALID,60.36,VALID,727.761,VALID,26.481,VALID,21.0,VALID,0.937,
2017-07-23, 10:12:06,VALID,919.138,VALID,0.0,VALID,60.997,VALID,730.694,VALID,26.729,VALID,21.0,VALID,1.231,
2017-07-23, 10:13:06,VALID,919.133,VALID,0.0,VALID,59.83,VALID,731.584,VALID,26.736,VALID,354.0,VALID,0.911,
2017-07-23, 10:14:06,VALID,919.113,VALID,0.0,VALID,60.121,VALID,734.649,VALID,26.699,VALID,21.0,VALID,0.727,
2017-07-23, 10:15:06,VALID,919.082,VALID,0.0,VALID,60.967,VALID,738.735,VALID,26.7,VALID,15.0,VALID,0.879,
2017-07-23, 10:16:06,VALID,919.068,VALID,0.0,VALID,60.235,VALID,741.244,VALID,26.799,VALID,325.0,VALID,0.523,
2017-07-23, 10:17:06,VALID,919.03,VALID,0.0,VALID,59.965,VALID,744.391,VALID,26.768,VALID,331.0,VALID,0.474,
2017-07-23, 10:18:06,VALID,919.001,VALID,0.0,VALID,59.158,VALID,746.384,VALID,26.759,VALID,353.0,VALID,0.687,
2017-07-23, 10:19:06,VALID,918.998,VALID,0.0,VALID,59.949,VALID,748.724,VALID,26.826,VALID,9.0,VALID,0.983,
2017-07-23, 10:20:06,VALID,918.987,VALID,0.0,VALID,60.066,VALID,750.546,VALID,26.93,VALID,28.0,VALID,1.139,
2017-07-23, 10:21:06,VALID,918.971,VALID,0.0,VALID,60.005,VALID,752.368,VALID,27.011,VALID,13.0,VALID,0.558,
2017-07-23, 10:22:06,VALID,918.958,VALID,0.0,VALID,60.595,VALID,753.164,VALID,27.123,VALID,351.0,VALID,0.66,
2017-07-23, 10:23:06,VALID,918.955,VALID,0.0,VALID,59.554,VALID,754.636,VALID,27.242,VALID,348.0,VALID,0.98,
2017-07-23, 10:24:06,VALID,918.963,VALID,0.0,VALID,57.795,VALID,758.251,VALID,27.182,VALID,322.0,VALID,0.963,
2017-07-23, 10:25:06,VALID,918.946,VALID,0.0,VALID,57.63,VALID,761.411,VALID,26.865,VALID,347.0,VALID,1.027,
2017-07-23, 10:26:06,VALID,918.951,VALID,0.0,VALID,61.114,VALID,763.213,VALID,26.72,VALID,21.0,VALID,1.063,
2017-07-23, 10:27:06,VALID,918.963,VALID,0.0,VALID,60.988,VALID,764.181,VALID,26.864,VALID,16.0,VALID,1.102,
2017-07-23, 10:28:06,VALID,918.964,VALID,0.0,VALID,58.796,VALID,765.933,VALID,26.938,VALID,296.0,VALID,0.178,
2017-07-23, 10:29:06,VALID,918.973,VALID,0.0,VALID,57.639,VALID,767.336,VALID,26.906,VALID,331.0,VALID,0.868,
2017-07-23, 10:30:06,VALID,918.942,VALID,0.0,VALID,60.054,VALID,770.217,VALID,26.825,VALID,13.0,VALID,1.63,
2017-07-23, 10:31:06,VALID,918.945,VALID,0.0,VALID,59.913,VALID,772.37,VALID,26.822,VALID,44.0,VALID,0.508,
2017-07-23, 10:32:06,VALID,918.909,VALID,0.0,VALID,59.717,VALID,775.076,VALID,26.789,VALID,182.0,VALID,0.525,
2017-07-23, 10:33:06,VALID,918.905,VALID,0.0,VALID,59.366,VALID,775.977,VALID,26.909,VALID,287.0,VALID,0.636,
2017-07-23, 10:34:06,VALID,918.874,VALID,0.0,VALID,58.374,VALID,778.625,VALID,26.825,VALID,194.0,VALID,0.588,
2017-07-23, 10:35:06,VALID,918.862,VALID,0.0,VALID,59.831,VALID,781.237,VALID,26.76,VALID,268.0,VALID,0.797,
2017-07-23, 10:36:06,VALID,918.854,VALID,0.0,VALID,61.571,VALID,783.235,VALID,26.699,VALID,339.0,VALID,0.165,